When you browse on this site, cookies collect data to enhance your experience and personalize the content and advertising you see.
Visit our Privacy Policy to learn more. By continuing to use the site, you agree to this use of cookies and data.
  • en France
  • Liste des pays
  • À 7 jours
  • Température de l'eau
  • Carte satellitaire
  • Carte météo
  • Widgets météo
  • user-avatar
    Se connecter

    Météo par heure à Cacheu

    Ce jour, 22 Juillet, Lundi

    Heure Température Précipitation Vent Pression Humidité
    00:00 +27°C° 0 mm 2 m/s 759 mmHg 85%
    01:00 +27°C° 0 mm 2 m/s 758 mmHg 87%
    02:00 +27°C° 0 mm 2 m/s 758 mmHg 88%
    03:00 +27°C° 0 mm 2 m/s 758 mmHg 89%
    04:00 +26°C° 0 mm 2 m/s 758 mmHg 90%
    05:00 +27°C° 0 mm 2 m/s 758 mmHg 91%
    06:00 +27°C° 0 mm 3 m/s 758 mmHg 87%
    07:00 +28°C° 0 mm 3 m/s 759 mmHg 84%
    08:00 +28°C° 0 mm 4 m/s 759 mmHg 81%
    09:00 +30°C° 0 mm 3 m/s 759 mmHg 74%
    10:00 +31°C° 0 mm 3 m/s 759 mmHg 67%
    11:00 +32°C° 0 mm 2 m/s 759 mmHg 60%
    12:00 +33°C° 0 mm 3 m/s 758 mmHg 60%
    13:00 +33°C° 0 mm 4 m/s 757 mmHg 60%
    14:00 +33°C° 0 mm 5 m/s 757 mmHg 60%
    15:00 +33°C° 0 mm 5 m/s 756 mmHg 63%
    16:00 +32°C° 0 mm 5 m/s 756 mmHg 66%
    17:00 +30°C° 0 mm 4 m/s 756 mmHg 69%
    18:00 +29°C° 0 mm 4 m/s 756 mmHg 74%
    19:00 +28°C° 0 mm 3 m/s 757 mmHg 78%
    20:00 +28°C° 0 mm 3 m/s 757 mmHg 82%
    21:00 +28°C° 0 mm 2 m/s 757 mmHg 83%
    22:00 +27°C° 0 mm 2 m/s 758 mmHg 85%
    23:00 +27°C° 0 mm 2 m/s 758 mmHg 86%

    Demain, 23 Juillet, Mardi

    Heure Température Précipitation Vent Pression Humidité
    00:00 +27°C° 0 mm 2 m/s 758 mmHg 85%
    01:00 +27°C° 0 mm 2 m/s 757 mmHg 84%
    02:00 +28°C° 0 mm 2 m/s 757 mmHg 83%
    03:00 +27°C° 0 mm 2 m/s 757 mmHg 83%
    04:00 +27°C° 0 mm 2 m/s 757 mmHg 82%
    05:00 +27°C° 0 mm 2 m/s 756 mmHg 82%
    06:00 +28°C° 0 mm 2 m/s 757 mmHg 78%
    07:00 +29°C° 0 mm 3 m/s 757 mmHg 75%
    08:00 +29°C° 0 mm 3 m/s 757 mmHg 71%
    09:00 +31°C° 0 mm 3 m/s 757 mmHg 65%
    10:00 +33°C° 0 mm 3 m/s 757 mmHg 60%
    11:00 +34°C° 0 mm 3 m/s 757 mmHg 54%
    12:00 +34°C° 0 mm 4 m/s 757 mmHg 54%
    13:00 +34°C° 0 mm 4 m/s 756 mmHg 54%
    14:00 +34°C° 0 mm 5 m/s 756 mmHg 54%
    15:00 +33°C° 0.2 mm 5 m/s 756 mmHg 59%
    16:00 +32°C° 0.2 mm 4 m/s 756 mmHg 64%
    17:00 +30°C° 0.2 mm 4 m/s 755 mmHg 68%
    18:00 +29°C° 0.2 mm 4 m/s 756 mmHg 73%
    19:00 +28°C° 0.2 mm 3 m/s 757 mmHg 78%
    20:00 +28°C° 0.2 mm 2 m/s 757 mmHg 82%
    21:00 +27°C° 0.1 mm 2 m/s 757 mmHg 83%
    22:00 +27°C° 0.1 mm 2 m/s 757 mmHg 85%
    23:00 +27°C° 0.1 mm 2 m/s 757 mmHg 86%

    Après-demain, 24 Juillet, Mercredi

    Heure Température Précipitation Vent Pression Humidité
    00:00 +27°C° 0.2 mm 2 m/s 757 mmHg 87%
    01:00 +27°C° 0.2 mm 2 m/s 757 mmHg 88%
    02:00 +27°C° 0.2 mm 2 m/s 757 mmHg 89%
    03:00 +27°C° 0 mm 2 m/s 757 mmHg 90%
    04:00 +26°C° 0 mm 2 m/s 757 mmHg 90%
    05:00 +26°C° 0 mm 2 m/s 757 mmHg 91%
    06:00 +27°C° 0 mm 3 m/s 758 mmHg 87%
    07:00 +28°C° 0 mm 4 m/s 758 mmHg 84%
    08:00 +29°C° 0 mm 4 m/s 758 mmHg 80%
    09:00 +30°C° 0 mm 5 m/s 758 mmHg 75%
    10:00 +32°C° 0 mm 5 m/s 758 mmHg 70%
    11:00 +33°C° 0 mm 5 m/s 758 mmHg 64%
    12:00 +33°C° 0.1 mm 5 m/s 758 mmHg 65%
    13:00 +32°C° 0.1 mm 5 m/s 758 mmHg 66%
    14:00 +32°C° 0.1 mm 5 m/s 757 mmHg 66%
    15:00 +32°C° 0.1 mm 6 m/s 757 mmHg 69%
    16:00 +30°C° 0.1 mm 6 m/s 757 mmHg 71%
    17:00 +29°C° 0.1 mm 6 m/s 756 mmHg 73%
    18:00 +29°C° 0 mm 5 m/s 757 mmHg 75%
    19:00 +28°C° 0 mm 5 m/s 758 mmHg 78%
    20:00 +28°C° 0 mm 4 m/s 758 mmHg 81%
    21:00 +28°C° 0 mm 4 m/s 758 mmHg 80%
    22:00 +28°C° 0 mm 4 m/s 759 mmHg 80%
    23:00 +28°C° 0 mm 3 m/s 759 mmHg 80%

    25 Juillet, Jeudi

    Heure Température Précipitation Vent Pression Humidité
    00:00 +27°C° 0.5 mm 3 m/s 759 mmHg 81%
    01:00 +27°C° 0.5 mm 3 m/s 758 mmHg 82%
    02:00 +27°C° 0.5 mm 3 m/s 758 mmHg 84%
    03:00 +27°C° 1.4 mm 3 m/s 758 mmHg 85%
    04:00 +27°C° 1.4 mm 3 m/s 758 mmHg 87%
    05:00 +27°C° 1.4 mm 2 m/s 758 mmHg 88%
    06:00 +27°C° 2.2 mm 3 m/s 758 mmHg 87%
    07:00 +27°C° 2.2 mm 3 m/s 759 mmHg 86%
    08:00 +28°C° 2.2 mm 3 m/s 759 mmHg 85%
    09:00 +28°C° 2.3 mm 3 m/s 759 mmHg 85%
    10:00 +27°C° 2.3 mm 3 m/s 759 mmHg 86%
    11:00 +27°C° 2.3 mm 3 m/s 759 mmHg 87%
    12:00 +27°C° 2.4 mm 3 m/s 759 mmHg 88%
    13:00 +27°C° 2.4 mm 3 m/s 759 mmHg 89%
    14:00 +27°C° 2.4 mm 3 m/s 758 mmHg 90%
    15:00 +27°C° 0.4 mm 2 m/s 758 mmHg 90%
    16:00 +27°C° 0.4 mm 2 m/s 758 mmHg 90%
    17:00 +27°C° 0.4 mm 2 m/s 758 mmHg 90%
    18:00 +26°C° 0 mm 2 m/s 758 mmHg 90%
    19:00 +26°C° 0 mm 2 m/s 759 mmHg 91%
    20:00 +26°C° 0 mm 2 m/s 759 mmHg 92%
    21:00 +26°C° 0 mm 2 m/s 760 mmHg 92%
    22:00 +26°C° 0 mm 1 m/s 760 mmHg 92%
    23:00 +26°C° 0 mm 1 m/s 760 mmHg 93%

    26 Juillet, Vendredi

    Heure Température Précipitation Vent Pression Humidité
    00:00 +26°C° 0 mm 1 m/s 759 mmHg 93%
    01:00 +26°C° 0 mm 1 m/s 759 mmHg 93%
    02:00 +26°C° 0 mm 1 m/s 759 mmHg 93%
    03:00 +26°C° 0.1 mm 1 m/s 759 mmHg 94%
    04:00 +25°C° 0.1 mm 1 m/s 759 mmHg 94%
    05:00 +25°C° 0.1 mm 1 m/s 759 mmHg 94%
    06:00 +26°C° 0.1 mm 1 m/s 759 mmHg 90%
    07:00 +27°C° 0.1 mm 1 m/s 760 mmHg 87%
    08:00 +28°C° 0.1 mm 1 m/s 760 mmHg 83%
    09:00 +29°C° 0 mm 1 m/s 760 mmHg 76%
    10:00 +30°C° 0 mm 1 m/s 760 mmHg 69%
    11:00 +32°C° 0 mm 2 m/s 760 mmHg 62%
    12:00 +32°C° 0 mm 2 m/s 759 mmHg 61%
    13:00 +33°C° 0 mm 3 m/s 758 mmHg 61%
    14:00 +34°C° 0 mm 4 m/s 757 mmHg 60%
    15:00 +33°C° 0 mm 4 m/s 757 mmHg 63%
    16:00 +32°C° 0 mm 5 m/s 757 mmHg 65%
    17:00 +30°C° 0 mm 5 m/s 757 mmHg 68%
    18:00 +29°C° 0 mm 4 m/s 758 mmHg 72%
    19:00 +29°C° 0 mm 3 m/s 758 mmHg 76%
    20:00 +28°C° 0 mm 3 m/s 759 mmHg 80%
    21:00 +27°C° 0 mm 3 m/s 759 mmHg 82%
    22:00 +27°C° 0 mm 2 m/s 759 mmHg 83%
    23:00 +27°C° 0 mm 2 m/s 759 mmHg 85%

    27 Juillet, Samedi

    Heure Température Précipitation Vent Pression Humidité
    00:00 +27°C° 0 mm 2 m/s 759 mmHg 86%
    01:00 +27°C° 0 mm 2 m/s 759 mmHg 87%
    02:00 +26°C° 0 mm 2 m/s 759 mmHg 88%
    03:00 +26°C° 0 mm 2 m/s 758 mmHg 88%
    04:00 +26°C° 0 mm 2 m/s 758 mmHg 89%
    05:00 +26°C° 0 mm 2 m/s 758 mmHg 89%
    06:00 +26°C° 0 mm 2 m/s 758 mmHg 87%
    07:00 +27°C° 0 mm 3 m/s 758 mmHg 85%
    08:00 +27°C° 0 mm 3 m/s 758 mmHg 83%
    09:00 +29°C° 0 mm 3 m/s 759 mmHg 75%
    10:00 +30°C° 0 mm 2 m/s 759 mmHg 68%
    11:00 +32°C° 0 mm 2 m/s 759 mmHg 61%
    12:00 +32°C° 0 mm 2 m/s 758 mmHg 58%
    13:00 +34°C° 0 mm 2 m/s 758 mmHg 56%
    14:00 +35°C° 0 mm 2 m/s 757 mmHg 53%
    15:00 +34°C° 0 mm 3 m/s 757 mmHg 57%
    16:00 +33°C° 0 mm 3 m/s 757 mmHg 62%
    17:00 +32°C° 0 mm 4 m/s 756 mmHg 66%
    18:00 +30°C° 0 mm 3 m/s 757 mmHg 70%
    19:00 +29°C° 0 mm 3 m/s 757 mmHg 74%
    20:00 +28°C° 0 mm 3 m/s 758 mmHg 78%
    21:00 +27°C° 0 mm 2 m/s 758 mmHg 80%
    22:00 +27°C° 0 mm 2 m/s 758 mmHg 82%
    23:00 +27°C° 0 mm 2 m/s 758 mmHg 84%
    Voir plus